EN

Hourly Weather Bolshoe Selo

Today, 27 October, Tuesday

Time Temperature Precipitation Wind Pressure Humidity
00:00 +7°C° 0 mm 3 mps 754 mmHg 83%
01:00 +7°C° 0 mm 3 mps 754 mmHg 85%
02:00 +5°C° 0 mm 3 mps 754 mmHg 87%
03:00 +4°C° 0 mm 3 mps 754 mmHg 89%
04:00 +4°C° 0 mm 3 mps 754 mmHg 89%
05:00 +4°C° 0 mm 3 mps 754 mmHg 89%
06:00 +3°C° 0 mm 3 mps 754 mmHg 89%
07:00 +4°C° 0 mm 3 mps 755 mmHg 87%
08:00 +4°C° 0 mm 3 mps 755 mmHg 85%
09:00 +5°C° 0 mm 4 mps 755 mmHg 82%
10:00 +6°C° 0 mm 4 mps 755 mmHg 79%
11:00 +6°C° 0 mm 4 mps 755 mmHg 76%
12:00 +7°C° 0 mm 4 mps 755 mmHg 73%
13:00 +8°C° 0 mm 4 mps 755 mmHg 73%
14:00 +8°C° 0 mm 4 mps 755 mmHg 72%
15:00 +8°C° 0 mm 4 mps 755 mmHg 72%
16:00 +7°C° 0 mm 4 mps 755 mmHg 76%
17:00 +6°C° 0 mm 4 mps 755 mmHg 81%
18:00 +5°C° 0 mm 4 mps 754 mmHg 85%
19:00 +5°C° 0 mm 4 mps 754 mmHg 85%
20:00 +5°C° 0 mm 4 mps 755 mmHg 85%
21:00 +5°C° 0 mm 4 mps 755 mmHg 84%
22:00 +4°C° 0 mm 4 mps 754 mmHg 82%
23:00 +4°C° 0 mm 4 mps 754 mmHg 80%

Tomorrow, 28 October, Wednesday

Time Temperature Precipitation Wind Pressure Humidity
00:00 +4°C° 0 mm 4 mps 754 mmHg 78%
01:00 +3°C° 0 mm 4 mps 754 mmHg 77%
02:00 +3°C° 0 mm 4 mps 754 mmHg 76%
03:00 +3°C° 0 mm 4 mps 755 mmHg 75%
04:00 +1°C° 0 mm 4 mps 754 mmHg 76%
05:00 +1°C° 0 mm 4 mps 754 mmHg 76%
06:00 +1°C° 0 mm 4 mps 754 mmHg 77%
07:00 +1°C° 0 mm 4 mps 754 mmHg 75%
08:00 +1°C° 0 mm 5 mps 754 mmHg 74%
09:00 +1°C° 0 mm 5 mps 754 mmHg 72%
10:00 +3°C° 0 mm 5 mps 754 mmHg 69%
11:00 +5°C° 0 mm 5 mps 754 mmHg 66%
12:00 +6°C° 0 mm 5 mps 753 mmHg 62%
13:00 +6°C° 0 mm 5 mps 753 mmHg 62%
14:00 +7°C° 0 mm 5 mps 753 mmHg 61%
15:00 +7°C° 0 mm 4 mps 753 mmHg 60%
16:00 +6°C° 0 mm 4 mps 753 mmHg 64%
17:00 +5°C° 0 mm 4 mps 753 mmHg 68%
18:00 +4°C° 0 mm 3 mps 753 mmHg 73%
19:00 +4°C° 0 mm 4 mps 753 mmHg 73%
20:00 +4°C° 0 mm 4 mps 753 mmHg 73%
21:00 +3°C° 0 mm 4 mps 753 mmHg 74%
22:00 +3°C° 0 mm 3 mps 753 mmHg 73%
23:00 +3°C° 0 mm 3 mps 753 mmHg 73%

Day after tomorrow, 29 October, Thursday

Time Temperature Precipitation Wind Pressure Humidity
00:00 +2°C° 0 mm 3 mps 753 mmHg 73%
01:00 +2°C° 0 mm 3 mps 752 mmHg 72%
02:00 +2°C° 0 mm 3 mps 752 mmHg 71%
03:00 +1°C° 0 mm 3 mps 752 mmHg 70%
04:00 +1°C° 0 mm 3 mps 752 mmHg 69%
05:00 +1°C° 0 mm 3 mps 752 mmHg 68%
06:00 +1°C° 0 mm 3 mps 752 mmHg 67%
07:00 +1°C° 0 mm 3 mps 752 mmHg 66%
08:00 +2°C° 0 mm 3 mps 752 mmHg 64%
09:00 +2°C° 0 mm 3 mps 752 mmHg 62%
10:00 +3°C° 0 mm 3 mps 752 mmHg 60%
11:00 +4°C° 0 mm 3 mps 752 mmHg 57%
12:00 +7°C° 0 mm 3 mps 752 mmHg 55%
13:00 +7°C° 0 mm 3 mps 751 mmHg 55%
14:00 +7°C° 0 mm 3 mps 751 mmHg 55%
15:00 +8°C° 0 mm 3 mps 751 mmHg 55%
16:00 +7°C° 0 mm 3 mps 751 mmHg 59%
17:00 +5°C° 0 mm 3 mps 750 mmHg 63%
18:00 +3°C° 0 mm 3 mps 750 mmHg 68%
19:00 +3°C° 0 mm 3 mps 750 mmHg 69%
20:00 +3°C° 0 mm 3 mps 750 mmHg 70%
21:00 +3°C° 0 mm 3 mps 750 mmHg 72%
22:00 +3°C° 0 mm 3 mps 749 mmHg 70%
23:00 +4°C° 0 mm 3 mps 749 mmHg 69%

30 October, Friday

Time Temperature Precipitation Wind Pressure Humidity
00:00 +4°C° 0 mm 3 mps 749 mmHg 67%
01:00 +4°C° 0 mm 3 mps 748 mmHg 66%
02:00 +4°C° 0 mm 3 mps 748 mmHg 65%
03:00 +4°C° 0 mm 3 mps 748 mmHg 65%
04:00 +4°C° 0 mm 3 mps 748 mmHg 66%
05:00 +4°C° 0 mm 3 mps 748 mmHg 68%
06:00 +3°C° 0 mm 3 mps 747 mmHg 69%
07:00 +4°C° 0 mm 3 mps 747 mmHg 70%
08:00 +4°C° 0 mm 3 mps 747 mmHg 71%
09:00 +4°C° 0 mm 3 mps 747 mmHg 72%
10:00 +5°C° 0 mm 3 mps 747 mmHg 70%
11:00 +7°C° 0 mm 3 mps 747 mmHg 68%
12:00 +8°C° 0 mm 3 mps 747 mmHg 67%
13:00 +8°C° 0 mm 3 mps 747 mmHg 68%
14:00 +8°C° 0 mm 3 mps 747 mmHg 70%
15:00 +8°C° 0 mm 2 mps 746 mmHg 72%
16:00 +8°C° 0 mm 3 mps 746 mmHg 77%
17:00 +7°C° 0 mm 3 mps 746 mmHg 81%
18:00 +7°C° 0 mm 3 mps 746 mmHg 86%
19:00 +7°C° 0.1 mm 2 mps 746 mmHg 86%
20:00 +7°C° 0.1 mm 2 mps 746 mmHg 87%
21:00 +6°C° 0.1 mm 2 mps 746 mmHg 88%
22:00 +6°C° 0 mm 2 mps 746 mmHg 88%
23:00 +6°C° 0 mm 2 mps 746 mmHg 89%

31 October, Saturday

Time Temperature Precipitation Wind Pressure Humidity
00:00 +6°C° 0 mm 2 mps 746 mmHg 89%
01:00 +6°C° 0.3 mm 2 mps 746 mmHg 91%
02:00 +6°C° 0.3 mm 2 mps 746 mmHg 92%
03:00 +6°C° 0.3 mm 2 mps 746 mmHg 94%
04:00 +6°C° 0.6 mm 2 mps 746 mmHg 94%
05:00 +6°C° 0.6 mm 2 mps 746 mmHg 95%
06:00 +6°C° 0.6 mm 2 mps 746 mmHg 95%
07:00 +6°C° 0.3 mm 2 mps 746 mmHg 95%
08:00 +5°C° 0.3 mm 3 mps 746 mmHg 95%
09:00 +5°C° 0.3 mm 3 mps 747 mmHg 95%
10:00 +5°C° 0.1 mm 3 mps 747 mmHg 94%
11:00 +5°C° 0.1 mm 3 mps 747 mmHg 93%
12:00 +5°C° 0.1 mm 3 mps 748 mmHg 92%
13:00 +5°C° 0 mm 3 mps 748 mmHg 92%
14:00 +7°C° 0 mm 3 mps 748 mmHg 91%
15:00 +7°C° 0 mm 3 mps 749 mmHg 91%
16:00 +7°C° 0 mm 3 mps 749 mmHg 91%
17:00 +5°C° 0 mm 3 mps 749 mmHg 91%
18:00 +5°C° 0 mm 3 mps 750 mmHg 91%
19:00 +5°C° 0 mm 3 mps 750 mmHg 91%
20:00 +5°C° 0 mm 3 mps 751 mmHg 91%
21:00 +5°C° 0 mm 4 mps 751 mmHg 91%
22:00 +5°C° 0 mm 3 mps 751 mmHg 91%
23:00 +5°C° 0 mm 3 mps 752 mmHg 91%

1 November, Sunday

Time Temperature Precipitation Wind Pressure Humidity
00:00 +5°C° 0 mm 3 mps 752 mmHg 91%
01:00 +5°C° 0 mm 3 mps 752 mmHg 91%
02:00 +5°C° 0 mm 4 mps 752 mmHg 92%
03:00 +5°C° 0 mm 4 mps 753 mmHg 92%
04:00 +5°C° 0 mm 4 mps 753 mmHg 92%
05:00 +5°C° 0 mm 4 mps 753 mmHg 91%
06:00 +5°C° 0 mm 4 mps 754 mmHg 91%
07:00 +5°C° 0 mm 4 mps 754 mmHg 91%
08:00 +5°C° 0 mm 4 mps 754 mmHg 90%
09:00 +5°C° 0 mm 4 mps 754 mmHg 89%
10:00 +5°C° 0 mm 4 mps 755 mmHg 87%
11:00 +6°C° 0 mm 4 mps 755 mmHg 85%
12:00 +6°C° 0 mm 4 mps 755 mmHg 82%
13:00 +6°C° 0 mm 4 mps 755 mmHg 82%
14:00 +7°C° 0 mm 4 mps 755 mmHg 81%
15:00 +7°C° 0 mm 4 mps 755 mmHg 81%
16:00 +6°C° 0 mm 4 mps 756 mmHg 82%
17:00 +6°C° 0 mm 4 mps 756 mmHg 84%
18:00 +5°C° 0 mm 4 mps 756 mmHg 86%
19:00 +5°C° 0 mm 4 mps 756 mmHg 86%
20:00 +5°C° 0 mm 4 mps 757 mmHg 87%
21:00 +5°C° 0 mm 4 mps 757 mmHg 87%
22:00 +5°C° 0 mm 4 mps 757 mmHg 87%
23:00 +5°C° 0 mm 4 mps 757 mmHg 87%
Show more